LEGION 6

导读

LEGION 6(即WorldView Legion 6)是美国Maxar公司研制的高分辨率商业遥感卫星,于2025年2月4日由SpaceX猎鹰9号火箭,在美国肯尼迪航天中心成功发射入轨。该卫星具备0.3米级超高成像分辨率,可实现每日多次重访全球重点区域,支持灾害应急响应、海上监视、环境监测、国防情报、商业地理服务等多领域应用,是WorldView Legion“观测军团”星座的关键组成部分,进一步完善了全球高分辨率对地观测网络能力。

基本信息
目录编号:
62901
目录名称:
LEGION 6
国际标识:
2025-025B
轨道中心:
EARTH
卫星名称:
LEGION 6
卫星全名:
LEGION 6
卫星状态:
在轨 (已飞行496 天)
发射日期:
2025-02-04 UTC
国别 :
美国 (US)
星等 :
--
轨道信息
数据来源 国际轨道数据 AOE轨道数据
星历时间 2026-06-15T05:20:50+0800
8小时前
查看轨道信息
2026-06-15T08:00:00+0800
5小时前
查看轨道信息
半长轴 6896.149km 6896.159km
偏心率 0.0006304 0.0006122
轨道倾角 45.000° 45.000°
近地点辐角 107.363° 109.367°
升交点赤经 222.856° 222.264°
平近点角 252.794° 134.662°
近地点 513.664km 513.8km
远地点 522.36km 522.244km
周期 94.988分钟 94.988分钟
每日圈数 15.159779 15.159746
详细信息
使用方式:
暂无
2D轨道图
3D轨道图
轨道高度分析图
轨道倾角分析图
轨道综合分析图
查看轨道综合分析图